IW2NIA-3 Weather Reports


Display with metric or nautical units.
time (UTC)temp
F
wind
direction
speed
MPH
gust
MPH
rain 1hr
in
rain 24hr
in
rain mn
in
humidity
%
barometer
mb
20260510140340 60 180 2.0 5.0 0.00 0.28 0.28 85 1012.5
20260510134836 60 117 3.0 7.0 0.00 0.28 0.28 87 1012.6
20260510133331 59 196 3.0 7.0 0.00 0.28 0.28 87 1012.7
20260510131839 59 137 3.0 4.0 0.00 0.28 0.28 87 1012.9
20260510130328 59 115 3.0 5.0 0.00 0.28 0.28 87 1012.9
20260510124843 58 173 2.0 6.0 0.00 0.28 0.28 89 1012.9
20260510123337 58 163 2.0 4.0 0.00 0.28 0.28 90 1013.1
20260510121838 58 169 0.0 7.0 0.01 0.28 0.28 90 1013.4
20260510120331 58 145 2.0 6.0 0.02 0.28 0.28 90 1013.4
20260510114828 58 152 3.0 10.0 0.03 0.28 0.28 91 1013.5
20260510113341 59 132 4.0 6.0 0.04 0.28 0.28 92 1013.4
20260510111832 59 111 1.0 7.0 0.04 0.27 0.27 92 1013.6
20260510110327 59 92 3.0 4.0 0.05 0.26 0.26 93 1013.6
20260510104840 59 98 4.0 6.0 0.06 0.25 0.25 93 1013.6
20260510103340 59 86 3.0 4.0 0.07 0.24 0.24 93 1013.7
20260510101837 58 121 3.0 6.0 0.07 0.23 0.23 93 1013.9
20260510100341 59 89 3.0 6.0 0.07 0.21 0.21 93 1013.8
20260510094834 59 40 3.0 4.0 0.08 0.19 0.19 93 1014.0
20260510093330 58 35 0.0 3.0 0.09 0.17 0.17 93 1014.0
20260510091843 58 46 1.0 4.0 0.09 0.16 0.16 93 1013.9
20260510090338 58 63 2.0 3.0 0.08 0.14 0.14 93 1014.0
20260510084835 58 9 0.0 4.0 0.08 0.11 0.11 92 1014.1
20260510083330 58 26 0.0 3.0 0.07 0.08 0.08 92 1014.1
20260510081829 58 13 2.0 3.0 0.06 0.07 0.07 92 1014.0
20260510080337 58 34 0.0 3.0 0.05 0.06 0.06 92 1014.1
20260510074834 58 28 0.0 2.0 0.02 0.03 0.03 91 1013.9
20260510073331 58 44 1.0 3.0 0.00 0.01 0.01 91 1013.8
20260510071846 58 9 5.0 8.0 0.00 0.01 0.01 91 1013.7
20260510070341 58 22 0.0 6.0 0.01 0.01 0.01 91 1013.6
20260510064839 58 13 3.0 7.0 0.01 0.01 0.01 90 1013.5
20260510063337 58 342 2.0 5.0 0.01 0.01 0.01 90 1013.5
20260510061832 58 20 1.0 5.0 0.01 0.01 0.01 89 1013.4
20260510060345 58 18 2.0 4.0 0.00 0.00 0.00 89 1013.3
20260510054835 58 315 1.0 5.0 0.00 0.00 0.00 88 1013.3
20260510053329 59 284 2.0 10.0 0.00 0.00 0.00 87 1013.2
20260510051828 59 225 4.0 5.0 0.00 0.00 0.00 84 1013.1
20260510050343 59 74 0.0 1.0 0.00 0.00 0.00 83 1012.6
20260510044831 59 74 1.0 3.0 0.00 0.00 0.00 83 1012.4
20260510043333 59 78 2.0 5.0 0.00 0.00 0.00 83 1012.3
20260510041847 59 78 3.0 6.0 0.00 0.00 0.00 84 1012.4
20260510040342 59 69 3.0 5.0 0.00 0.00 0.00 84 1012.3
20260510034834 58 102 3.0 6.0 0.00 0.00 0.00 85 1012.4
20260510033330 58 55 2.0 6.0 0.00 0.00 0.00 86 1012.6
20260510031846 58 74 4.0 6.0 0.00 0.00 0.00 86 1012.7
20260510030335 58 64 0.0 5.0 0.00 0.00 0.00 85 1012.9
20260510024844 59 44 3.0 4.0 0.00 0.00 0.00 84 1012.8
20260510023343 59 63 2.0 4.0 0.00 0.00 0.00 84 1012.9
20260510021833 59 71 3.0 6.0 0.00 0.00 0.00 83 1013.1
20260510020344 59 74 4.0 5.0 0.00 0.00 0.00 82 1013.2
20260510014834 60 32 1.0 4.0 0.00 0.00 0.00 81 1013.4
20260510013347 59 70 0.0 4.0 0.00 0.00 0.00 81 1013.5
20260510011826 59 9 5.0 6.0 0.00 0.00 0.00 80 1013.6
20260510010340 60 29 3.0 5.0 0.00 0.00 0.00 78 1013.6
20260510004839 60 90 0.0 3.0 0.00 0.00 0.00 76 1013.6
20260510003338 60 90 3.0 5.0 0.00 0.00 0.00 78 1013.6
20260510001839 59 78 0.0 0.0 0.00 0.00 0.00 78 1013.8
20260510000333 59 65 2.0 3.0 0.00 0.00 0.00 79 1014.0
20260509234836 58 287 0.0 1.0 0.00 0.00 0.00 80 1014.1
20260509233341 58 287 0.0 0.0 0.00 0.00 0.00 81 1014.2
20260509230342 57 287 0.0 3.0 0.00 0.00 0.00 80 1014.2
20260509224834 58 286 1.0 3.0 0.00 0.00 0.00 80 1014.2
20260509223330 58 286 0.0 0.0 0.00 0.00 0.00 78 1014.3
20260509221827 58 286 0.0 0.0 0.00 0.00 0.00 77 1014.3
20260509220342 59 286 0.0 2.0 0.00 0.00 0.00 76 1014.3
20260509214837 60 286 0.0 0.0 0.00 0.00 0.00 73 1014.2
20260509213334 60 286 1.0 3.0 0.00 0.00 0.00 74 1014.3
20260509211831 60 278 0.0 0.0 0.00 0.00 0.00 76 1014.2
20260509210341 60 278 0.0 3.0 0.00 0.00 0.00 75 1014.0
20260509204833 60 269 1.0 3.0 0.00 0.00 0.00 76 1014.0
20260509203333 61 269 0.0 0.0 0.00 0.00 0.00 76 1014.0
20260509201848 62 246 0.0 0.0 0.00 0.00 0.00 74 1014.0
20260509200340 62 246 0.0 0.0 0.00 0.00 0.00 73 1013.9
20260509194832 63 246 0.0 0.0 0.00 0.00 0.00 71 1013.8
20260509193333 64 246 0.0 0.0 0.00 0.00 0.00 68 1013.5
20260509191845 65 246 0.0 0.0 0.00 0.00 0.00 65 1013.3
20260509190339 66 246 0.0 0.0 0.00 0.00 0.00 63 1013.3
20260509184844 67 246 0.0 0.0 0.00 0.00 0.00 62 1013.2
20260509183337 68 246 0.0 0.0 0.00 0.00 0.00 61 1013.3
20260509181829 69 246 0.0 0.0 0.00 0.00 0.00 58 1013.3
20260509180339 70 246 0.0 0.0 0.00 0.00 0.00 54 1013.3
20260509174841 71 246 0.0 0.0 0.00 0.00 0.00 50 1013.2
20260509173337 72 246 0.0 1.0 0.00 0.00 0.00 46 1013.2
20260509171834 72 243 1.0 5.0 0.00 0.00 0.00 46 1013.2
20260509170331 73 250 2.0 4.0 0.00 0.00 0.00 42 1013.3
20260509164825 73 252 0.0 4.0 0.00 0.00 0.00 39 1013.3
20260509163339 74 262 0.0 4.0 0.00 0.00 0.00 40 1013.4
20260509161837 75 240 2.0 4.0 0.00 0.00 0.00 43 1013.4
20260509160330 75 275 1.0 3.0 0.00 0.00 0.00 41 1013.5
20260509154839 74 255 3.0 6.0 0.00 0.00 0.00 42 1013.6
20260509153335 75 281 2.0 5.0 0.00 0.00 0.00 45 1013.7
20260509151837 75 255 2.0 10.0 0.00 0.00 0.00 49 1013.8
20260509150339 74 227 3.0 9.0 0.00 0.00 0.00 48 1013.7
20260509144832 75 259 3.0 7.0 0.00 0.00 0.00 48 1013.8
20260509143331 74 327 0.0 5.0 0.00 0.00 0.00 46 1013.8
20260509141831 74 256 3.0 5.0 0.00 0.00 0.00 49 1013.9